Simultaneous Nadir Overpasses (SNOs) Predictions

Prediction of SNOs between LANDSAT-8 and METOP-A Satellite Orbit:

Table of predicted SNOs for the next 14.0 days since TLE Epoch: 3/20/2021
Index Date (LANDSAT-8) Time (LANDSAT-8) Lat,Lon (LANDSAT-8) SZA (LANDSAT-8 ) Date (METOP-A) Time (METOP-A) Lat,Lon (METOP-A) SZA (METOP-A ) Distance(km) Time Diff (sec)
1 03/21/2021 18:32:18 81.41, -53.51 83.14 03/21/2021 18:31:20 81.42, -53.46 83.12 1.07 58
2 03/21/2021 19:21:45 -81.41, 114.03 96.90 03/21/2021 19:22:00 -81.42, 114.04 96.88 0.75 15
3 03/24/2021 14:06:32 81.43, 13.22 82.09 03/24/2021 14:05:41 81.41, 13.13 82.05 2.21 51
4 03/24/2021 14:56:00 -81.41,-179.60 97.99 03/24/2021 14:56:22 -81.42,-179.74 97.98 2.80 22
5 03/27/2021 09:40:46 81.42, 79.52 81.00 03/27/2021 09:40:01 81.41, 79.70 80.99 3.38 45
6 03/27/2021 10:30:14 -81.40,-113.27 99.08 03/27/2021 10:30:42 -81.41,-113.15 99.05 2.37 28
7 03/30/2021 05:15:01 81.41, 145.78 79.90 03/30/2021 05:14:23 81.41, 145.86 79.90 1.35 38
8 03/30/2021 06:04:28 -81.41, -46.59 100.11 03/30/2021 06:05:03 -81.41, -46.57 100.10 0.89 35
9 04/02/2021 00:49:15 81.42,-147.61 78.87 04/02/2021 00:48:44 81.41,-147.60 78.85 1.62 31



Historial Predications of SNOs between LANDSAT-8 and METOP-A
